ATLAS 5 CENTAUR DEB, 43999

Orbit data source: Space-Track

ATLAS 5 CENTAUR DEB, 43999 is space debris in HEO originally from a launch on Wed, 17 Sep 2014 UTC launched from the Air Force Eastern Test Range (AFETR). Debris objects in space refer to the collection of defunct objects orbiting the Earth. Examples of debris include non-operational satellites, rocket bodies, and fragments generated from explosions, collisions, or faulty payload assembly.

Loading next visibility...
Identifier
43999, 2014-055BE
Orbit
HEO
Country
Flag of USUS
Related business
Flag of USUnited Launch Alliance/Lockheed Martin (US)
Manufacturer
Unknown
Mission
Spacecraft
Bus & Motor
Unknown
Mass
Unknown
Launch date (UTC)
2014-09-17 (12 years ago)
Launch vehicle
Unknown
Launch site
Air Force Eastern Test Range (AFETR)
Object type
Payload
Rocket body
Debris
Shape & HBR
Unknown shape, 1.1 m
Radar Cross Section
Medium (>0.1 m² and <1 m²)

Expand to show TLE details & history
Last TLE update: 16 hours ago

TLE from 16 hours ago
0 ATLAS 5 CENTAUR DEB
1 43999U 14055BE  26235.58275706 -.00000139  00000-0  00000-0 0  9991
2 43999  20.0896 144.1965 4702318 165.4007 215.0537  1.85335876 53950
Epoch: 2026-08-23T13:59Z
TLE epoch observation values (Epoch: 2026-08-23T13:59:10.209Z)
Latitude
0.00003°
Longitude
-37.49762°
Altitude
33,660.515 km
Speed
2.382 km/s
True Right ascension
09h 36m 41s
True Declination
0° 00' 00"
Sunlit
Object was in daylight at epoch
Visualization orbit readout
Latitude
Unknown
Longitude
Unknown
Altitude
Unknown
Speed
Unknown
Apparent Right ascension
Unknown
Apparent Declination
Unknown
Sunlit
N/A
Visualization observer readout
Local Sidereal Time
21:13:32
Azimuth
Unknown
Elevation
Unknown
Doppler factor
Unknown
Orbital elements
Apogee altitude
34,785.222 km
Perigee altitude
8,454.244 km
Semi-major axis
27,997.87 km
Eccentricity
0.47023
Inclination
20.0896°
RAAN
144.1965°
Arg. of periapsis
165.4007°
True anomaly
194.58358°
Mean anomaly
215.0537°
Eccentric anomaly
204.06665°
Mean motion
0.46329 °/min
Orbital period
777.05 mins
BSTAR
0
Loading maneuver chart data...
Computing Atmospheric mass density...

Documentation

Showing up to 5 results
|